Weather in Kastornaya-Kurskaya

Russia / Kursk Oblast     51°49′16″N   38°05′35″E
temp.,
°C
wind,
m/s
gust,
m/s
humid.,
%
clouds,
%
prec.,
mm/h
press.,
hPa
HPBL,
m
1 march, mon
mon100:00−2n239897 0.1 1020101
03:00−2n229798 0.1 102292
06:00−2nne1197100 0.1 102440
09:00−1nne1294100 0.1 1026154
12:00−1n1190100 0.1 1027309
15:000w238695 0.1 1027546
18:00−2wnw359262 0.0 1027144
21:00−1w588579 0.0 1027505
2 march, tue
tue200:00−1wsw61188100 0.0 1025584
03:00−2wsw71391100 0.0 1023459
06:00−1wsw81490100 0.0 1019687
09:000w81490100 0.0 1018740
12:00+1w71295100 0.1 1015653
15:00+1w71299100 0.2 1014622
18:00+1wnw51198100 0.2 1012514
21:000nw4999100 1.9 1013387
3 march, wed
wed300:00−1nnw61392100 2.0 1013632
03:00−3nnw5129189 2.0 1015367
06:00−2nnw6139095 0.1 1016689
09:00−3nnw7138671 0.1 1018962
12:00−2nnw7117739 0.0 10201120
15:00−1nw698046 0.1 1020893
18:00−2w49860 0.0 1020263
21:00−3w4128814 0.0 1021372
4 march, thu
thu400:00−4w389475 0.0 1020206
03:00−3wsw4109346 0.0 1019251
06:00−3wsw5129392 0.0 1017288
09:00−2wsw6138746 0.0 1015447
12:00+1wsw713760 0.0 1012669
15:00+2sw815700 0.0 1010725
18:00+2sw717750 0.0 1007634
21:00+2wsw7178511 0.0 1006580
5 march, fri
fri500:00+2wsw71492100 0.1 1005461
03:00+1wsw6139399 0.1 1006415
06:00+1wsw41098100 0.1 1006357
09:00+1wsw51096100 0.1 1007464
12:00+2wsw4797100 0.0 1007480
15:00+1ssw2599100 2.7 1006177
18:00+2wsw41199100 3.6 1004411
21:00+1wnw3598100 5.1 1004179